Weather History for NW Arkansas Airport, AR

Change the Weather History Date:

Saturday, December 28, 2013

  Actual Average Record
Temperature  
Mean Temperature 39 °F -  
Max Temperature 53 °F - - ()
Min Temperature 25 °F - - ()
Degree Days  
Heating Degree Days 26    
Moisture  
Dew Point 28 °F    
Average Humidity 68    
Maximum Humidity 92    
Minimum Humidity 37    
Precipitation  
Precipitation 0.00 in - - ()
Sea Level Pressure  
Sea Level Pressure 30.12 in    
Wind  
Wind Speed 3 mph (South)    
Max Wind Speed 13 mph    
Max Gust Speed 17 mph    
Visibility 10 miles    
Events      
T = Trace of Precipitation, MM = Missing Value Source: NWS Daily Summary

Daily Weather History Graph

Daily Weather History Graph

Search for Another Location

Airport:

Trip Planner

Search our weather history database for the weather conditions in past years. The results will help you decide how hot, cold, wet, or windy it might be!

Date:

Astronomy

Dec. 28, 2013 Rise Set
Actual Time 7:27 AM CST 5:10 PM CST
Civil Twilight 6:59 AM CST 5:39 PM CST
Nautical Twilight 6:26 AM CST 6:11 PM CST
Astronomical Twilight 5:55 AM CST 6:42 PM CST
Moon 3:09 AM CST (12/28) 1:58 PM CST (12/28)
Length of Visible Light 10h 39m
Length of Day
9h 42m
Waning Crescent, 19% of the Moon is Illuminated
Dec 28
Waning Crescent
Jan 1
New
Jan 7
First Quarter
Jan 15
Full
Jan 23
Last Quarter

Hourly Weather History & Observations

Time (CST) Temp. Windchill Dew Point Humidity Pressure Visibility Wind Dir Wind Speed Gust Speed Precip Events Conditions
12:53 AM 30.0 °F - 25.0 °F 82% 30.30 in 10.0 mi Calm Calm - N/A   Clear
1:53 AM 28.9 °F - 23.0 °F 78% 30.28 in 10.0 mi Calm Calm - N/A   Clear
2:53 AM 28.0 °F - 24.1 °F 85% 30.27 in 10.0 mi Calm Calm - N/A   Clear
3:53 AM 30.0 °F 26.5 °F 25.0 °F 82% 30.25 in 10.0 mi South 3.5 mph - N/A   Clear
4:53 AM 27.0 °F - 24.1 °F 89% 30.24 in 10.0 mi Calm Calm - N/A   Clear
5:53 AM 25.0 °F - 23.0 °F 92% 30.24 in 10.0 mi Calm Calm - N/A   Clear
6:53 AM 28.0 °F - 24.1 °F 85% 30.23 in 10.0 mi Calm Calm - N/A   Clear
7:53 AM 30.0 °F - 26.1 °F 85% 30.23 in 10.0 mi Calm Calm - N/A   Clear
8:53 AM 30.9 °F - 27.0 °F 85% 30.24 in 10.0 mi Calm Calm - N/A   Clear
9:53 AM 39.0 °F 35.7 °F 32.0 °F 76% 30.22 in 10.0 mi SSE 4.6 mph - N/A   Clear
10:53 AM 46.0 °F 41.9 °F 33.1 °F 61% 30.19 in 10.0 mi SSW 8.1 mph - N/A   Clear
11:53 AM 50.0 °F - 33.1 °F 52% 30.15 in 10.0 mi SSW 9.2 mph - N/A   Clear
12:53 PM 51.1 °F - 33.1 °F 50% 30.10 in 10.0 mi SSE 10.4 mph - N/A   Clear
1:53 PM 53.1 °F - 27.0 °F 37% 30.04 in 10.0 mi SSW 10.4 mph - N/A   Clear
2:53 PM 53.1 °F - 28.9 °F 40% 30.02 in 10.0 mi South 12.7 mph - N/A   Clear
3:53 PM 52.0 °F - 26.1 °F 37% 30.00 in 10.0 mi South 12.7 mph 17.3 mph N/A   Clear
4:53 PM 48.0 °F - 28.0 °F 46% 30.00 in 10.0 mi South 6.9 mph - N/A   Clear
5:53 PM 44.1 °F 40.1 °F 28.9 °F 55% 30.00 in 10.0 mi South 6.9 mph - N/A   Clear
6:53 PM 42.1 °F 37.7 °F 30.9 °F 65% 29.99 in 10.0 mi South 6.9 mph - N/A   Clear
7:53 PM 42.1 °F 38.4 °F 30.9 °F 65% 29.98 in 10.0 mi South 5.8 mph - N/A   Clear
8:53 PM 41.0 °F 38.0 °F 30.0 °F 65% 29.97 in 10.0 mi South 4.6 mph - N/A   Clear
9:53 PM 39.0 °F 34.8 °F 30.0 °F 70% 29.96 in 10.0 mi South 5.8 mph - N/A   Clear
10:53 PM 39.9 °F 35.1 °F 30.9 °F 70% 29.94 in 10.0 mi SSW 6.9 mph - N/A   Clear
11:53 PM 39.0 °F 34.0 °F 30.9 °F 73% 29.94 in 10.0 mi SSW 6.9 mph - N/A   Clear